Location: Praha
(50.0830°N, 14.4670°E)
Time: 14:22:47
(UTC+02:00)

ELYUSIUM/LOWER FREE FLYE - Visible Passes

Search period start: 20 May 2019 00:00
Search period end: 30 May 2019 00:00
Orbit: 571 x 592 km, 97.7° (Epoch: 20 May)

Date Brightness Start Highest point End Pass type
(mag) Time Alt. Az. Time Alt. Az. Time Alt. Az.
20 May ? 21:31:41 10° ESE 21:34:39 20° ENE 21:37:37 10° NNE visible
20 May ? 23:07:15 21° SSW 23:09:42 50° W 23:13:41 10° NNW visible
21 May ? 21:36:55 10° ESE 21:40:03 22° ENE 21:43:12 10° NNE visible
21 May ? 23:12:43 20° SSW 23:15:10 43° W 23:19:05 10° NNW visible
22 May ? 21:42:09 10° ESE 21:45:27 24° ENE 21:48:46 10° N visible
22 May ? 23:18:10 19° SSW 23:20:39 38° W 23:24:29 10° NNW visible
23 May ? 21:47:26 10° ESE 21:50:52 27° ENE 21:54:19 10° N visible
23 May ? 23:23:38 18° SSW 23:26:07 34° W 23:29:52 10° NNW visible
24 May ? 21:52:43 10° SE 21:56:16 30° ENE 21:59:51 10° N visible
24 May ? 23:29:05 16° SSW 23:31:36 30° W 23:35:14 10° NNW visible
25 May ? 21:58:11 11° SE 22:01:42 33° ENE 22:05:23 10° N visible
25 May ? 23:34:33 15° SW 23:37:06 27° W 23:40:36 10° NW visible
26 May ? 22:03:38 12° SE 22:07:06 38° ENE 22:10:54 10° N visible
26 May ? 23:40:01 14° SW 23:42:35 24° W 23:45:55 10° NW visible
27 May ? 22:09:06 13° SE 22:12:31 42° ENE 22:16:24 10° N visible
27 May ? 23:45:27 12° SW 23:48:04 21° W 23:51:14 10° NW visible
28 May ? 22:14:33 13° SE 22:17:56 48° ENE 22:21:53 10° N visible
28 May ? 23:50:55 11° SW 23:53:34 19° W 23:56:30 10° NW visible
29 May ? 22:20:01 14° SSE 22:23:21 54° ENE 22:27:22 10° N visible
